Location: Les Jeannots
(43.2262°N, 5.5774°E)
Time: 17:48:58
(UTC+00:00)

Cosmos 1315 Rocket - Pass Details

Date: 05 July 2020
Orbit: 530 x 568 km, 81.2° (Epoch: 12 August)

Event Time Altitude Azimuth Distance (km) Brightness Sun altitude
Rises 20:46:50 0° 359° (N) 2,753 7.2 -12.7°
Reaches altitude 10° 20:49:14 10° 11° (N) 1,859 6.1 -13.0°
Maximum altitude 20:52:52 30° 73° (ENE) 1,027 4.0 -13.4°
Enters shadow 20:54:48 20° 118° (ESE) 1,318 4.2 -13.7°
